• în Republica Moldova
  • Lista ţărilor
  • Pe 7 zile
  • Temperatura apei
  • Hartă satelitară
  • Meteo pe hartă
  • Widget-uri
  • user-avatar
    Intrare

    Meteo pe oră la Stepanakert

    Astăzi, 25 Mai, Joi

    Timp Temperatura Precipitaţii Vânt Presiune Umiditate
    00:00 +11°C° 0,1 mm 1 m/s 691 mmHg 80%
    01:00 +11°C° 0 mm 1 m/s 691 mmHg 81%
    02:00 +11°C° 0 mm 1 m/s 691 mmHg 82%
    03:00 +10°C° 0 mm 1 m/s 691 mmHg 83%
    04:00 +12°C° 0 mm 1 m/s 691 mmHg 78%
    05:00 +13°C° 0 mm 1 m/s 692 mmHg 73%
    06:00 +15°C° 0 mm 1 m/s 692 mmHg 68%
    07:00 +16°C° 0 mm 1 m/s 693 mmHg 62%
    08:00 +18°C° 0 mm 2 m/s 693 mmHg 55%
    09:00 +20°C° 0 mm 2 m/s 693 mmHg 48%
    10:00 +21°C° 0,2 mm 3 m/s 693 mmHg 46%
    11:00 +22°C° 0,2 mm 3 m/s 693 mmHg 44%
    12:00 +22°C° 0,2 mm 3 m/s 693 mmHg 42%
    13:00 +24°C° 0,2 mm 3 m/s 693 mmHg 42%
    14:00 +24°C° 0,2 mm 3 m/s 693 mmHg 42%
    15:00 +24°C° 0 mm 2 m/s 692 mmHg 44%
    16:00 +23°C° 0,2 mm 2 m/s 692 mmHg 48%
    17:00 +21°C° 0,2 mm 2 m/s 692 mmHg 52%
    18:00 +21°C° 0,2 mm 2 m/s 693 mmHg 57%
    19:00 +18°C° 0 mm 2 m/s 693 mmHg 64%
    20:00 +16°C° 0 mm 1 m/s 693 mmHg 71%
    21:00 +13°C° 0 mm 1 m/s 693 mmHg 78%
    22:00 +12°C° 0 mm 1 m/s 693 mmHg 80%
    23:00 +12°C° 0 mm 1 m/s 693 mmHg 83%

    Mâine, 26 Mai, Vineri

    Timp Temperatura Precipitaţii Vânt Presiune Umiditate
    00:00 +11°C° 0 mm 1 m/s 693 mmHg 86%
    01:00 +11°C° 0 mm 1 m/s 693 mmHg 87%
    02:00 +10°C° 0 mm 1 m/s 693 mmHg 88%
    03:00 +10°C° 0 mm 1 m/s 692 mmHg 90%
    04:00 +11°C° 0 mm 1 m/s 693 mmHg 85%
    05:00 +12°C° 0 mm 0 m/s 693 mmHg 80%
    06:00 +13°C° 0 mm 0 m/s 694 mmHg 75%
    07:00 +16°C° 0 mm 1 m/s 694 mmHg 69%
    08:00 +19°C° 0 mm 1 m/s 694 mmHg 62%
    09:00 +19°C° 0 mm 2 m/s 694 mmHg 55%
    10:00 +21°C° 0 mm 2 m/s 694 mmHg 52%
    11:00 +23°C° 0 mm 2 m/s 694 mmHg 49%
    12:00 +24°C° 0 mm 3 m/s 693 mmHg 46%
    13:00 +24°C° 0,1 mm 3 m/s 693 mmHg 46%
    14:00 +24°C° 0,1 mm 3 m/s 693 mmHg 46%
    15:00 +25°C° 0,1 mm 3 m/s 692 mmHg 46%
    16:00 +24°C° 0 mm 2 m/s 692 mmHg 51%
    17:00 +23°C° 0 mm 2 m/s 692 mmHg 56%
    18:00 +21°C° 0 mm 2 m/s 692 mmHg 61%
    19:00 +19°C° 0 mm 2 m/s 691 mmHg 69%
    20:00 +18°C° 0 mm 1 m/s 691 mmHg 77%
    21:00 +14°C° 0 mm 1 m/s 691 mmHg 85%
    22:00 +14°C° 0 mm 1 m/s 691 mmHg 86%
    23:00 +13°C° 0 mm 1 m/s 691 mmHg 88%

    Poimâine, 27 Mai, Sâmbătă

    Timp Temperatura Precipitaţii Vânt Presiune Umiditate
    00:00 +13°C° 0 mm 1 m/s 691 mmHg 89%
    01:00 +12°C° 0 mm 1 m/s 691 mmHg 90%
    02:00 +12°C° 0 mm 1 m/s 691 mmHg 90%
    03:00 +12°C° 0 mm 1 m/s 691 mmHg 90%
    04:00 +13°C° 0 mm 1 m/s 691 mmHg 86%
    05:00 +13°C° 0 mm 0 m/s 691 mmHg 83%
    06:00 +15°C° 0 mm 0 m/s 692 mmHg 79%
    07:00 +19°C° 0 mm 1 m/s 692 mmHg 71%
    08:00 +21°C° 0 mm 1 m/s 692 mmHg 62%
    09:00 +21°C° 0 mm 2 m/s 692 mmHg 54%
    10:00 +24°C° 0,3 mm 2 m/s 692 mmHg 51%
    11:00 +25°C° 0,3 mm 3 m/s 691 mmHg 49%
    12:00 +26°C° 0,3 mm 3 m/s 691 mmHg 46%
    13:00 +26°C° 0,5 mm 3 m/s 691 mmHg 46%
    14:00 +26°C° 0,5 mm 3 m/s 690 mmHg 46%
    15:00 +27°C° 0,5 mm 3 m/s 690 mmHg 45%
    16:00 +26°C° 0,6 mm 2 m/s 689 mmHg 50%
    17:00 +25°C° 0,6 mm 2 m/s 689 mmHg 55%
    18:00 +24°C° 0,6 mm 1 m/s 689 mmHg 59%
    19:00 +21°C° 0,7 mm 1 m/s 689 mmHg 67%
    20:00 +19°C° 0,7 mm 1 m/s 689 mmHg 75%
    21:00 +15°C° 0,7 mm 1 m/s 689 mmHg 83%
    22:00 +15°C° 0,2 mm 1 m/s 689 mmHg 84%
    23:00 +15°C° 0,2 mm 1 m/s 690 mmHg 84%

    28 Mai, Duminică

    Timp Temperatura Precipitaţii Vânt Presiune Umiditate
    00:00 +14°C° 0,2 mm 1 m/s 690 mmHg 85%
    01:00 +14°C° 0 mm 1 m/s 690 mmHg 85%
    02:00 +14°C° 0 mm 1 m/s 690 mmHg 84%
    03:00 +13°C° 0 mm 1 m/s 690 mmHg 84%
    04:00 +15°C° 0 mm 1 m/s 690 mmHg 79%
    05:00 +16°C° 0 mm 1 m/s 691 mmHg 75%
    06:00 +18°C° 0 mm 1 m/s 691 mmHg 70%
    07:00 +19°C° 0 mm 2 m/s 691 mmHg 61%
    08:00 +21°C° 0 mm 2 m/s 692 mmHg 52%
    09:00 +25°C° 0 mm 2 m/s 692 mmHg 43%
    10:00 +26°C° 0 mm 2 m/s 692 mmHg 41%
    11:00 +27°C° 0 mm 3 m/s 692 mmHg 38%
    12:00 +28°C° 0 mm 3 m/s 691 mmHg 35%
    13:00 +28°C° 0 mm 3 m/s 691 mmHg 35%
    14:00 +28°C° 0 mm 3 m/s 690 mmHg 35%
    15:00 +28°C° 0 mm 3 m/s 690 mmHg 35%
    16:00 +28°C° 0 mm 2 m/s 690 mmHg 39%
    17:00 +27°C° 0 mm 2 m/s 690 mmHg 43%
    18:00 +26°C° 0 mm 2 m/s 690 mmHg 47%
    19:00 +23°C° 0,1 mm 2 m/s 690 mmHg 54%
    20:00 +20°C° 0,1 mm 1 m/s 690 mmHg 61%
    21:00 +16°C° 0,1 mm 1 m/s 691 mmHg 68%
    22:00 +16°C° 0 mm 2 m/s 691 mmHg 68%
    23:00 +16°C° 0 mm 2 m/s 691 mmHg 68%

    29 Mai, Luni

    Timp Temperatura Precipitaţii Vânt Presiune Umiditate
    00:00 +15°C° 0 mm 2 m/s 691 mmHg 67%
    01:00 +15°C° 0 mm 2 m/s 691 mmHg 68%
    02:00 +14°C° 0 mm 2 m/s 692 mmHg 68%
    03:00 +14°C° 0 mm 2 m/s 692 mmHg 68%
    04:00 +15°C° 0 mm 1 m/s 692 mmHg 65%
    05:00 +16°C° 0 mm 1 m/s 693 mmHg 63%
    06:00 +18°C° 0 mm 1 m/s 694 mmHg 60%
    07:00 +19°C° 0 mm 2 m/s 694 mmHg 54%
    08:00 +21°C° 0 mm 2 m/s 695 mmHg 48%
    09:00 +24°C° 0 mm 3 m/s 695 mmHg 43%
    10:00 +24°C° 0 mm 3 m/s 695 mmHg 41%
    11:00 +25°C° 0 mm 3 m/s 695 mmHg 40%
    12:00 +26°C° 0 mm 3 m/s 695 mmHg 39%
    13:00 +26°C° 0,1 mm 4 m/s 695 mmHg 42%
    14:00 +25°C° 0,1 mm 5 m/s 695 mmHg 45%
    15:00 +24°C° 0,1 mm 6 m/s 694 mmHg 48%
    16:00 +22°C° 0,2 mm 6 m/s 694 mmHg 55%
    17:00 +20°C° 0,2 mm 5 m/s 694 mmHg 62%
    18:00 +17°C° 0,2 mm 5 m/s 694 mmHg 70%
    19:00 +17°C° 0 mm 4 m/s 695 mmHg 74%
    20:00 +14°C° 0 mm 4 m/s 695 mmHg 79%
    21:00 +13°C° 0 mm 3 m/s 696 mmHg 83%
    22:00 +12°C° 0 mm 3 m/s 696 mmHg 83%
    23:00 +12°C° 0 mm 3 m/s 695 mmHg 83%

    30 Mai, Marţi

    Timp Temperatura Precipitaţii Vânt Presiune Umiditate
    00:00 +13°C° 0 mm 2 m/s 695 mmHg 83%
    01:00 +12°C° 0 mm 2 m/s 695 mmHg 83%
    02:00 +11°C° 0 mm 1 m/s 695 mmHg 84%
    03:00 +11°C° 0 mm 1 m/s 694 mmHg 84%
    04:00 +12°C° 0 mm 1 m/s 695 mmHg 81%
    05:00 +12°C° 0 mm 1 m/s 695 mmHg 78%
    06:00 +13°C° 0 mm 1 m/s 695 mmHg 76%
    07:00 +15°C° 0 mm 1 m/s 695 mmHg 70%
    08:00 +18°C° 0 mm 1 m/s 695 mmHg 63%
    09:00 +19°C° 0 mm 2 m/s 695 mmHg 57%
    10:00 +20°C° 0 mm 2 m/s 694 mmHg 53%
    11:00 +23°C° 0 mm 2 m/s 694 mmHg 48%
    12:00 +24°C° 0 mm 3 m/s 694 mmHg 44%
    13:00 +25°C° 0 mm 3 m/s 693 mmHg 43%
    14:00 +25°C° 0 mm 3 m/s 693 mmHg 43%
    15:00 +26°C° 0 mm 3 m/s 692 mmHg 42%
    16:00 +25°C° 0 mm 2 m/s 692 mmHg 46%
    17:00 +24°C° 0 mm 2 m/s 692 mmHg 49%
    18:00 +23°C° 0 mm 1 m/s 692 mmHg 53%
    19:00 +21°C° 0 mm 1 m/s 692 mmHg 60%
    20:00 +18°C° 0 mm 1 m/s 692 mmHg 67%
    21:00 +15°C° 0 mm 1 m/s 692 mmHg 74%
    22:00 +15°C° 0 mm 1 m/s 692 mmHg 73%
    23:00 +15°C° 0 mm 1 m/s 692 mmHg 73%
    Arată mai mult